Regional Weather Roundup
Issued by NWS

Home | Current Version | Previous Version | Text Only | Print | Product List | Glossary Off
Versions: 1 2 3 4 5 6 7 8 9 10 11 12 13 14 15 16 17 18 19 20 21 22 23 24 25 26 27 28 29 30 31 32 33 34 35 36 37 38 39 40 41 42 43 44 45 46 47 48 49 50

000
ASUS43 KLSX 211157
RWRMO

WEATHER SUMMARY FOR MISSOURI
NATIONAL WEATHER SERVICE SPRINGFIELD MO
700 AM CDT MON MAY 21 2018

NOTE: "FAIR" INDICATES FEW OR NO CLOUDS BELOW 12,000 FEET WITH NO
       SIGNIFICANT WEATHER AND/OR OBSTRUCTIONS TO VISIBILITY.
       CURRENT SKY AND/OR WEATHER CONDITIONS ARE NOT AVAILABLE FOR
       CHILLICOTHE AND FARMINGTON.

MOZ001>031-035>038-043-044-053-054-211300-
...NORTHERN AND WESTERN MISSOURI...

CITY           SKY/WX    TMP DP  RH WIND       PRES   REMARKS
KANSAS CTY INT CLOUDY    59  59 100 W3        30.05R FOG
6HR MIN TEMP:  59; 6HR MAX TEMP:  63;

ST JOSEPH      CLOUDY    59  59 100 W6        30.04R FOG
6HR MIN TEMP:  59; 6HR MAX TEMP:  62;

CHILLICOTHE      N/A     65  63  93 VRB5      30.03R
6HR MIN TEMP:  65; 6HR MAX TEMP:  68; 6HR PCP:  0.01;


$$
MOZ066>068-077>081-088>096-101>105-211300-
...SOUTHWEST MISSOURI...

CITY           SKY/WX    TMP DP  RH WIND       PRES   REMARKS
SPRINGFIELD    CLOUDY    67  65  93 S5        30.05R FOG
6HR MIN TEMP:  66; 6HR MAX TEMP:  67;

JOPLIN         CLOUDY    63  62  97 CALM      30.06S FOG
6HR MIN TEMP:  63; 6HR MAX TEMP:  67;

BRANSON        CLOUDY    66  66 100 CALM      30.08R FOG

$$
MOZ032>034-039>042-045>050-055>058-069>072-211300-
...CENTRAL MISSOURI...

CITY           SKY/WX    TMP DP  RH WIND       PRES   REMARKS
COLUMBIA       NOT AVBL
JEFFERSON CITY CLOUDY    66  64  93 E3        30.04R
6HR MIN TEMP:  65; 6HR MAX TEMP:  66; 6HR PCP:  0.32;

ROLLA          CLOUDY    64  63  96 S6        30.07R
6HR MIN TEMP:  63; 6HR MAX TEMP:  64; 6HR PCP:  0.01;

SEDALIA        CLOUDY    66  66 100 VRB3      30.04S FOG
6HR MIN TEMP:  65; 6HR MAX TEMP:  67;


$$
MOZ051-052-059>065-211300-
...EAST CENTRAL MISSOURI...

CITY           SKY/WX    TMP DP  RH WIND       PRES   REMARKS
ST LOUIS INTL  NOT AVBL

$$
MOZ072>076-082>087-097>100-106>115-211300-
...SOUTH CENTRAL AND SOUTHEAST MISSOURI...

CITY           SKY/WX    TMP DP  RH WIND       PRES   REMARKS
CAPE GIRARDEAU PTSUNNY   69  65  86 SE7       30.06S
6HR MIN TEMP:  67; 6HR MAX TEMP:  70; 6HR PCP:  0.24;

POPLAR BLUFF   LGT RAIN  69  68  96 S6        30.04F
6HR MIN TEMP:  68; 6HR MAX TEMP:  71; 6HR PCP:  0.66;


$$




USA.gov is the U.S. government's official web portal to all federal, state and local government web resources and services.